Other Public Products
Issued by NWS Grand Forks, ND

Home | Current Version | Previous Version | Text Only | Print | Product List | Glossary Off
Versions: 1 2 3 4 5 6 7 8 9 10 11 12 13 14 15 16 17 18 19 20 21 22 23 24 25 26 27 28 29 30 31 32 33 34 35 36 37 38 39 40 41 42 43 44 45 46 47 48 49 50

000
FPUS83 KFGF 220431
OPUFGF
PRAIRIE TO PINES WEATHER ROUNDUP
NATIONAL WEATHER SERVICE EASTERN NORTH DAKOTA/GRAND FORKS ND
1000 PM CST SUN DEC 21 2014

 **SATELLITE DATA USED TO AUGMENT SKY COVER AT AUTOMATED STATIONS**
 *****  WEATHER ACROSS EASTERN NORTH DAKOTA  *****

CITY           SKY/WX    TMP DP  RH WIND       PRES   REMARKS
GRAND FORKS    CLOUDY    33  31  92 SE10      29.57S WCI  25
GRAND FORKS AF CLOUDY    32  32 100 S10       29.56F WCI  24
GRAND CITY NWS   N/A     32 N/A N/A SE14        N/A  WCI  22
BUXTON           N/A     33  33  99 SE8         N/A
DEVILS LAKE    CLOUDY    30  25  80 S14       29.49S WCI  20
FARGO          CLOUDY    36  33  89 SE13      29.56S FOG
WAHPETON ARPT  CLOUDY    34  32  93 SE12      29.55F
$$

 *****  WEATHER ACROSS CENTRAL AND WESTERN NORTH DAKOTA  *****

CITY           SKY/WX    TMP DP  RH WIND       PRES   REMARKS
JAMESTOWN      CLOUDY    31  30  96 SE7       29.48S FOG     WCI  24
BISMARCK       CLOUDY    29  29 100 SE10      29.45F FOG     WCI  20
MINOT          CLOUDY    30  28  92 SE10      29.42S FOG     WCI  21
MINOT AFB      FRZ DRZL  30  30 100 SE12      29.42S WCI  21
GARRISON         N/A     27  25  92 SE9       29.41S WCI  18
WILLISTON      CLOUDY    31  27  85 W3        29.37S
DICKINSON      CLOUDY    37  34  89 W9        29.36S
HETTINGER      CLOUDY    36  33  89 W9        29.41R
$$

 *****  OTHER OBSERVATIONS NORTHEAST NORTH DAKOTA  *****

CITY           SKY/WX    TMP DP  RH WIND       PRES   REMARKS
WALHALLA         N/A     32  32 100 SE13      29.56S FOG     WCI  22
LANGDON        FOG       30  28  93 SE9       29.51S VSB 1/4 WCI  22
CAVALIER       CLOUDY    32  32 100 SE6       29.57S FOG
GRAFTON        NOT AVBL
CANDO          CLOUDY    28  28 100 S10       29.51S FOG     WCI  19
FORT TOTTEN      N/A     29  29 100 S2        29.95S
ROLLA          FOG       27  27 100 S13G21    29.49S VSB 1/2 WCI  16
RUGBY          CLOUDY    28  28 100 SE13G18   29.48S FOG     WCI  18
 ***** THE ABOVE OBSERVATIONS ARE NON NWS ARE NOT QUALITY
        CONTROLLED AND MAY MIS-REPORT RAIN FOR SNOW...
$$

 *****  OTHER OBSERVATIONS SOUTHEAST NORTH DAKOTA *****

CITY           SKY/WX    TMP DP  RH WIND       PRES   REMARKS
COOPERSTOWN    NOT AVBL
VALLEY CITY    CLOUDY    32  32 100 SE8       29.50F FOG     WCI  25
OAKES            N/A     32  32 100 E7        29.49S FOG
GWINNER        CLOUDY    34  34 100 E9        29.51F
SHEYENNE NWR     N/A     33  32  94 SE6       29.95
BUFFALO        NOT AVBL
WYNDMERE         N/A     34  34 100 E6          N/A
 ***** THE ABOVE OBSERVATIONS ARE NON NWS ARE NOT QUALITY
       CONTROLLED AND MAY MIS-REPORT RAIN FOR SNOW...
$$

  *****  WEATHER ACROSS NORTHERN MINNESOTA  *****

CITY           SKY/WX    TMP DP  RH WIND       PRES   REMARKS
FLAG ISLAND    CLOUDY    32  30  93 S10       29.63R WCI  24
WARROAD        CLOUDY    34  28  80 SE7       29.62S
ROSEAU         CLOUDY    34  28  80 SE7       29.61S
HALLOCK        CLOUDY    34  30  86 CALM      29.59R
THF RVR FALLS  CLOUDY    32  30  93 SE9       29.59F WCI  24
HALSTAD          N/A     34  32  92 SE9         N/A
FOSSTON        CLOUDY    30  30 100 SE7       29.59S WCI  23
BAUDETTE       CLOUDY    33  30  88 S7        29.63S
WASKISH        CLOUDY    34  32  93 CALM      29.63S
CROOKSTON      CLOUDY    34  32  93 SE8       29.59S
$$
  *****  WEATHER ACROSS CENTRAL AND WEST MINNESOTA  *****

CITY           SKY/WX    TMP DP  RH WIND       PRES   REMARKS
BEMIDJI        CLOUDY    32  32  99 SE12      29.61S WCI  23
PARK RAPIDS    FOG       34  33  96 SE13      29.60F VSB 1   WCI  25
WADENA         CLOUDY    34  34 100 SE9       29.60F FOG
DETROIT LAKES  CLOUDY    34  34 100 SE10      29.58S FOG
MOORHEAD       CLOUDY    36  36 100 SE8       29.57S FOG
FERGUS FALLS   CLOUDY    36  36 100 SE13      29.59S FOG
ELBOW LAKE     CLOUDY    34  34 100 SE13      29.56F FOG     WCI  25
MORRIS MN      FOG       36  34  93 SE14      29.56S VSB 3/4
STAPLES        CLOUDY    34  34 100 SE8       29.62F FOG
WHEATON        CLOUDY    32  32 100 SE9       29.56S FOG     WCI  24
$$
  *****  WEATHER ELSEWHERE ACROSS MINNESOTA  *****

CITY           SKY/WX    TMP DP  RH WIND       PRES   REMARKS
DULUTH         CLOUDY    34  32  92 SE7       29.71S FOG
INTRNTL FALLS  CLOUDY    32  30  92 SE9       29.66F WCI  24
ELY            CLOUDY    32  30  93 S7        29.71S FOG
CLOQUET        CLOUDY    34  34 100 SE6       29.70F FOG
BRAINERD       CLOUDY    34  34 100 SE8       29.66S FOG
HIBBING        CLOUDY    33  31  92 SE8       29.68S FOG
ALEXANDRIA     CLOUDY    35  34  96 SE15      29.60S FOG
SAINT CLOUD    CLOUDY    38  35  89 SE10      29.67S FOG
MINNEAPOLIS    CLOUDY    38  35  89 S12       29.73S
$$

  *****  WEATHER ACROSS SOUTH DAKOTA  *****

CITY           SKY/WX    TMP DP  RH WIND       PRES   REMARKS
SIOUX FALLS    CLOUDY    39  37  92 S21       29.54F
BROOKINGS      NOT AVBL
WATERTOWN      CLOUDY    36  34  92 S13       29.48F FOG
HURON          CLOUDY    36  34  92 S13       29.46S
SISSETON         N/A     34  34 100 SE9       29.52R
ABERDEEN       CLOUDY    36  33  89 S10       29.47S
MITCHELL       CLOUDY    37  36  96 S14       29.48S
PIERRE         CLOUDY    27  25  92 NW6       29.41F WCI  20
MOBRIDGE       FOG       29  28  96 SE3       29.41S VSB 1/2
RAPID CITY     LGT RAIN  41  35  79 NW25G32   29.47R
$$

  *****  SOME WEATHER IN NEARBY STATES *****

CITY           SKY/WX    TMP DP  RH WIND       PRES   REMARKS
GLASGOW MT     MIX PCPN  35  31  85 NW23G33   29.45R WCI  23
GREAT FALLS MT PTCLDY    32  24  72 W9        29.67R WCI  24
CHEYENNE WY    MIX PCPN  32  26  78 NW15G23   29.64R WCI  22
SCOTTSBLUFF NE CLOUDY    39  31  72 W13       29.55S
OMAHA NE       DRIZZLE   43  41  93 S20       29.67F FOG
DES MOINES IA  CLOUDY    44  39  82 S17       29.77F
DAVENPORT IA   CLOUDY    35  30  82 S17       29.93F WCI  25
CHICAGO IL     MOCLDY    34  28  79 S12       30.03F
EAU CLAIRE WI  CLOUDY    37  35  92 S12       29.79S
LA CROSSE WI   CLOUDY    39  35  86 S16       29.84R
$$

  *****  SOME NATIONAL WEATHER *****

CITY           SKY/WX    TMP DP  RH WIND       PRES   REMARKS
LA GUARDIA NY  CLOUDY    35  30  82 N6        30.34R
RALEIGH NC     CLOUDY    43  31  62 NE7       30.24R
ATLANTA GA     DRIZZLE   48  45  87 E9        30.09S
NEW ORLEANS LA CLOUDY    56  52  86 E5        29.97F FOG
OKLAHOMA CITY  CLOUDY    48  44  86 SE15G24   29.66F FOG
ALBUQUERQUE NM PTCLDY    37  28  70 E5        29.93F
SALT LAKE CITY CLOUDY    45  40  82 NW13      30.00R
LOS ANGELES CA CLOUDY    61  56  83 CALM      30.05R
BOISE ID       LGT RAIN  41  39  93 NW5       30.10S
SEATTLE WA     CLOUDY    50  45  83 SW13      30.08R
$$

*** WEATHER ACROSS MANITOBA...SASKATCHEWAN AND ONTARIO ***
                ***ONTARIO***

CITY           SKY/WX    TMP DP  RH WIND       PRES   REMARKS
GERALDTON      FLURRIES N/A N/A N/A S8          N/A
THUNDER BAY    LGT SNOW  34  34 100 S6        29.82F FOG
SIOUX LOOKOUT  FRZ DRZL  30  30 100 SE6       29.70S WCI  24
TORONTO        CLOUDY    32  21  64 SE3       30.28S
BIG TROUT LK   FLURRIES  28  28 100 S8        29.75S WCI  20
PICKLE LAKE    NOT AVBL
DRYDEN         CLOUDY    30  30 100 S7        29.67F WCI  23
KENORA         FRZ DRZL  30  28  93 S10       29.64F FOG     WCI  21
$$
                *** MANITOBA***

CITY           SKY/WX    TMP DP  RH WIND       PRES   REMARKS
BRANDON        FOG       25  23  93 E13       29.51R VSB 3/4 WCI  13
DAUPHIN        CLOUDY    27  27 100 E10       29.54F FOG     WCI  17
ISLAND LAKE    CLOUDY    28  28 100 E3        29.66S
PILOT MOUND      N/A     28  28 100 CALM        N/A
THE PAS        CLOUDY    25  23  93 E6        29.61S WCI  18
THOMPSON       FRZ DRZL  21  19  93 NE5       29.69S WCI  15
WINNIPEG       CLOUDY    30  30 100 SE12      29.60F FOG     WCI  21
LYNN LAKE      CLOUDY    14  12  92 E5        29.69R WCI   6
CHURCHILL      FLURRIES  14  12  92 S3        29.79R
GILLAM         FRZ DRZL  21  19  93 NE5       29.73  WCI  15
$$
                ***SASKATCHEWAN***

CITY           SKY/WX    TMP DP  RH WIND       PRES   REMARKS
ESTEVAN        FOG       28  28 100 E10       29.38S VSB 1/4 WCI  19
KINDERSLEY     LGT SNOW  19  18  93 NW7       29.52R WCI  10
LLOYDMINSTER   LGT SNOW  19  18  93 NW5       29.53R FOG     WCI  13
PRINCE ALBERT  CLOUDY    23  21  93 E7        29.55R FOG     WCI  15
REGINA         CLOUDY    25  23  93 E7        29.41R WCI  17


USA.gov is the U.S. government's official web portal to all federal, state and local government web resources and services.